Fort Polk, LA

7:45 PM CDT on September 25, 2017 (GMT -0500)
Polk Army Air Field

Weather History for KPOE - October, 2012

Change the Weather History Date:

Monday, October 15, 2012

  Actual Average Record
Temperature  
Mean Temperature 68 °F -  
Max Temperature 80 °F 75 °F 93 °F (2015)
Min Temperature 57 °F 56 °F 48 °F (1997)
Cooling Degree Days 4    
Growing Degree Days 18 (Base 50)    
Moisture  
Dew Point 54 °F    
Average Humidity 63    
Maximum Humidity 93    
Minimum Humidity 31    
Precipitation  
Precipitation 0.01 in - - ()
Sea Level Pressure  
Sea Level Pressure 30.03 in    
Wind  
Wind Speed 6 mph (NNE)    
Max Wind Speed 9 mph    
Max Gust Speed -    
Visibility 10 miles    
Events      
Averages and records for this station are not official NWS values.
T = Trace of Precipitation, MM = Missing Value Source: NWS Daily Summary

Daily Weather History Graph

Daily Weather History Graph

Search for Another Location

Airport or City:

Trip Planner

Search our weather history database for the weather conditions in past years. The results will help you decide how hot, cold, wet, or windy it might be!

Date:

Astronomy

Oct. 15, 2012 Rise Set
Actual Time 7:15 AM CDT 6:40 PM CDT
Civil Twilight 6:51 AM CDT 7:04 PM CDT
Nautical Twilight 6:23 AM CDT 7:32 PM CDT
Astronomical Twilight 5:55 AM CDT 8:01 PM CDT
Moon 7:23 AM CDT (10/15) 6:46 PM CDT (10/15)
Length of Visible Light 12h 13m
Length of Day
11h 24m
New Moon, 0% of the Moon is Illuminated
Oct 15
New Moon
Oct 21
First Quarter
Oct 29
Full
Nov 6
Last Quarter
Nov 13
New

Hourly Weather History & Observations

Time (CDT) Temp. Dew Point Humidity Pressure Visibility Wind Dir Wind Speed Gust Speed Precip Events Conditions
12:55 AM 70.0 °F 68.0 °F 93% 30.04 in 10.0 mi NNW 3.5 mph - N/A   Clear
1:55 AM 66.9 °F 63.0 °F 87% 30.04 in 10.0 mi North 6.9 mph - 0.01 in   Clear
2:55 AM 64.9 °F 60.1 °F 84% 30.03 in 10.0 mi North 5.8 mph - N/A   Clear
3:55 AM 64.0 °F 59.0 °F 84% 30.02 in 10.0 mi North 8.1 mph - N/A   Clear
4:55 AM 63.0 °F 57.0 °F 81% 30.04 in 10.0 mi North 6.9 mph - N/A   Clear
5:55 AM 62.1 °F 55.9 °F 80% 30.05 in 10.0 mi North 6.9 mph - N/A   Clear
6:55 AM 61.0 °F 55.0 °F 81% 30.06 in 10.0 mi NNE 4.6 mph - N/A   Clear
7:55 AM 62.1 °F 54.0 °F 75% 30.06 in 10.0 mi NNE 6.9 mph - N/A   Clear
8:55 AM 66.0 °F 54.0 °F 65% 30.08 in 10.0 mi NE 6.9 mph - N/A   Clear
9:55 AM 69.1 °F 53.1 °F 57% 30.09 in 10.0 mi NE 6.9 mph - N/A   Clear
10:55 AM 73.0 °F 52.0 °F 48% 30.09 in 10.0 mi East 8.1 mph - N/A   Clear
11:55 AM 75.9 °F 51.1 °F 42% 30.08 in 10.0 mi Variable 5.8 mph - N/A   Clear
12:55 PM 77.0 °F 48.9 °F 37% 30.05 in 10.0 mi NE 8.1 mph - N/A   Clear
1:55 PM 79.0 °F 48.0 °F 34% 30.02 in 10.0 mi ENE 5.8 mph - N/A   Clear
2:55 PM 80.1 °F 46.9 °F 31% 29.99 in 10.0 mi NNE 9.2 mph - N/A   Clear
3:55 PM 79.0 °F 46.0 °F 31% 29.98 in 10.0 mi Variable 4.6 mph - N/A   Clear
4:55 PM 78.1 °F 48.0 °F 35% 29.97 in 10.0 mi NE 5.8 mph - N/A   Clear
5:55 PM 75.9 °F 48.0 °F 37% 29.97 in 10.0 mi NE 5.8 mph - N/A   Clear
6:55 PM 68.0 °F 55.0 °F 63% 29.99 in 10.0 mi NNE 3.5 mph - N/A   Clear
7:55 PM 63.0 °F 55.0 °F 75% 30.00 in 10.0 mi NNE 5.8 mph - N/A   Clear
8:55 PM 64.0 °F 52.0 °F 65% 30.02 in 10.0 mi NE 5.8 mph - N/A   Clear
9:55 PM 63.0 °F 52.0 °F 67% 30.03 in 10.0 mi Calm Calm - N/A   Clear
10:55 PM 57.9 °F 53.1 °F 84% 30.03 in 10.0 mi Calm Calm - N/A   Clear
11:55 PM 57.0 °F 53.1 °F 87% 30.02 in 10.0 mi Calm Calm - N/A   Clear